• In Hungary
  • List of Countries
  • For 7 days
  • Water Temperature
  • Satellite Maps
  • Weather Map
  • News
  • Weather Widgets
  • user-avatar
    Login

    Hourly Weather Oborniki Slaskie

    Today, 12 December, Tuesday

    Time Temperature Precipitation Wind Pressure Humidity
    00:00 +7°C° 0 mm 4 mps 726 mmHg 83%
    01:00 +8°C° 0 mm 3 mps 727 mmHg 84%
    02:00 +8°C° 0 mm 3 mps 728 mmHg 84%
    03:00 +7°C° 0 mm 4 mps 728 mmHg 84%
    04:00 +7°C° 0 mm 4 mps 729 mmHg 84%
    05:00 +7°C° 0.1 mm 4 mps 730 mmHg 83%
    06:00 +6°C° 0.1 mm 5 mps 730 mmHg 82%
    07:00 +6°C° 0.1 mm 5 mps 731 mmHg 80%
    08:00 +5°C° 0 mm 6 mps 732 mmHg 76%
    09:00 +5°C° 0 mm 6 mps 733 mmHg 71%
    10:00 +5°C° 0 mm 7 mps 734 mmHg 66%
    11:00 +5°C° 0 mm 8 mps 735 mmHg 62%
    12:00 +5°C° 0 mm 8 mps 736 mmHg 58%
    13:00 +5°C° 0 mm 9 mps 737 mmHg 55%
    14:00 +3°C° 0 mm 9 mps 738 mmHg 56%
    15:00 +4°C° 0 mm 8 mps 739 mmHg 57%
    16:00 +3°C° 0 mm 7 mps 740 mmHg 59%
    17:00 +2°C° 0 mm 7 mps 741 mmHg 59%
    18:00 +2°C° 0 mm 7 mps 742 mmHg 59%
    19:00 +2°C° 0 mm 7 mps 742 mmHg 60%
    20:00 0°C° 0 mm 7 mps 743 mmHg 61%
    21:00 0°C° 0 mm 7 mps 744 mmHg 63%
    22:00 0°C° 0 mm 7 mps 745 mmHg 64%
    23:00 +1°C° 0 mm 6 mps 745 mmHg 67%

    Tomorrow, 13 December, Wednesday

    Time Temperature Precipitation Wind Pressure Humidity
    00:00 0°C° 0 mm 5 mps 746 mmHg 71%
    01:00 0°C° 0 mm 5 mps 746 mmHg 74%
    02:00 0°C° 0 mm 4 mps 747 mmHg 77%
    03:00 -1°C° 0 mm 4 mps 747 mmHg 79%
    04:00 0°C° 0 mm 3 mps 747 mmHg 82%
    05:00 -1°C° 0 mm 3 mps 747 mmHg 83%
    06:00 -1°C° 0 mm 3 mps 747 mmHg 84%
    07:00 -1°C° 0 mm 3 mps 748 mmHg 85%
    08:00 -1°C° 0 mm 3 mps 748 mmHg 80%
    09:00 0°C° 0 mm 3 mps 748 mmHg 76%
    10:00 0°C° 0 mm 4 mps 748 mmHg 72%
    11:00 0°C° 0 mm 4 mps 747 mmHg 68%
    12:00 +1°C° 0 mm 4 mps 747 mmHg 64%
    13:00 +1°C° 0 mm 4 mps 746 mmHg 61%
    14:00 +1°C° 0 mm 4 mps 745 mmHg 63%
    15:00 0°C° 0 mm 4 mps 745 mmHg 66%
    16:00 -1°C° 0 mm 4 mps 744 mmHg 68%
    17:00 -1°C° 0 mm 5 mps 743 mmHg 68%
    18:00 -1°C° 0 mm 5 mps 743 mmHg 67%
    19:00 -2°C° 0 mm 6 mps 742 mmHg 67%
    20:00 -2°C° 0.1 mm 6 mps 741 mmHg 64%
    21:00 -1°C° 0.1 mm 6 mps 740 mmHg 61%
    22:00 -1°C° 0.1 mm 6 mps 739 mmHg 59%
    23:00 -1°C° 0.2 mm 7 mps 738 mmHg 60%

    Day after tomorrow, 14 December, Thursday

    Time Temperature Precipitation Wind Pressure Humidity
    00:00 0°C° 0.2 mm 7 mps 738 mmHg 62%
    01:00 0°C° 0.2 mm 7 mps 737 mmHg 64%
    02:00 0°C° 0.1 mm 7 mps 736 mmHg 64%
    03:00 +2°C° 0.1 mm 7 mps 735 mmHg 64%
    04:00 +2°C° 0.1 mm 7 mps 734 mmHg 64%
    05:00 +2°C° 0.2 mm 7 mps 733 mmHg 67%
    06:00 +3°C° 0.2 mm 7 mps 733 mmHg 69%
    07:00 +3°C° 0.2 mm 7 mps 733 mmHg 71%
    08:00 +3°C° 0.4 mm 7 mps 733 mmHg 71%
    09:00 +4°C° 0.4 mm 7 mps 733 mmHg 71%
    10:00 +4°C° 0.4 mm 8 mps 733 mmHg 70%
    11:00 +4°C° 0.1 mm 8 mps 733 mmHg 64%
    12:00 +4°C° 0.1 mm 8 mps 733 mmHg 58%
    13:00 +4°C° 0.1 mm 8 mps 733 mmHg 52%
    14:00 +3°C° 0 mm 7 mps 733 mmHg 53%
    15:00 +2°C° 0 mm 6 mps 734 mmHg 55%
    16:00 +1°C° 0 mm 5 mps 734 mmHg 56%
    17:00 +1°C° 0 mm 5 mps 734 mmHg 57%
    18:00 0°C° 0 mm 5 mps 734 mmHg 58%
    19:00 0°C° 0 mm 4 mps 734 mmHg 59%
    20:00 0°C° 0 mm 4 mps 734 mmHg 60%
    21:00 0°C° 0 mm 4 mps 733 mmHg 62%
    22:00 0°C° 0 mm 5 mps 733 mmHg 63%
    23:00 0°C° 0.3 mm 5 mps 732 mmHg 68%

    15 December, Friday

    Time Temperature Precipitation Wind Pressure Humidity
    00:00 +1°C° 0.3 mm 5 mps 731 mmHg 73%
    01:00 +1°C° 0.3 mm 5 mps 730 mmHg 78%
    02:00 +2°C° 0.4 mm 5 mps 729 mmHg 79%
    03:00 +2°C° 0.4 mm 6 mps 729 mmHg 80%
    04:00 +2°C° 0.4 mm 6 mps 728 mmHg 81%
    05:00 +2°C° 0.3 mm 7 mps 729 mmHg 78%
    06:00 0°C° 0.3 mm 8 mps 729 mmHg 75%
    07:00 0°C° 0.3 mm 9 mps 730 mmHg 71%
    08:00 0°C° 0 mm 8 mps 731 mmHg 71%
    09:00 0°C° 0 mm 8 mps 732 mmHg 71%
    10:00 0°C° 0 mm 7 mps 733 mmHg 71%
    11:00 0°C° 0 mm 7 mps 733 mmHg 69%
    12:00 +2°C° 0 mm 6 mps 733 mmHg 66%
    13:00 +2°C° 0 mm 5 mps 734 mmHg 64%
    14:00 +1°C° 0 mm 4 mps 734 mmHg 69%
    15:00 +2°C° 0 mm 3 mps 734 mmHg 73%
    16:00 +1°C° 0 mm 3 mps 734 mmHg 78%
    17:00 +1°C° 0 mm 3 mps 734 mmHg 77%
    18:00 0°C° 0 mm 4 mps 734 mmHg 77%
    19:00 +1°C° 0 mm 4 mps 734 mmHg 77%
    20:00 0°C° 0 mm 4 mps 734 mmHg 78%
    21:00 0°C° 0 mm 4 mps 735 mmHg 80%
    22:00 +1°C° 0 mm 3 mps 735 mmHg 81%
    23:00 0°C° 0 mm 3 mps 735 mmHg 82%

    16 December, Saturday

    Time Temperature Precipitation Wind Pressure Humidity
    00:00 0°C° 0 mm 3 mps 734 mmHg 82%
    01:00 0°C° 0 mm 3 mps 734 mmHg 83%
    02:00 0°C° 0.1 mm 3 mps 735 mmHg 83%
    03:00 0°C° 0.1 mm 3 mps 735 mmHg 83%
    04:00 0°C° 0.1 mm 3 mps 735 mmHg 84%
    05:00 0°C° 0.2 mm 3 mps 735 mmHg 84%
    06:00 -1°C° 0.2 mm 4 mps 736 mmHg 85%
    07:00 -1°C° 0.2 mm 4 mps 736 mmHg 85%
    08:00 0°C° 0 mm 5 mps 737 mmHg 83%
    09:00 0°C° 0 mm 5 mps 737 mmHg 81%
    10:00 0°C° 0 mm 5 mps 738 mmHg 79%
    11:00 0°C° 0.1 mm 5 mps 738 mmHg 79%
    12:00 +1°C° 0.1 mm 5 mps 738 mmHg 78%
    13:00 +1°C° 0.1 mm 6 mps 739 mmHg 78%
    14:00 +1°C° 0.1 mm 5 mps 739 mmHg 79%
    15:00 0°C° 0.1 mm 5 mps 740 mmHg 81%
    16:00 0°C° 0.1 mm 4 mps 740 mmHg 83%
    17:00 0°C° 0 mm 4 mps 740 mmHg 84%
    18:00 -1°C° 0 mm 4 mps 741 mmHg 84%
    19:00 -1°C° 0 mm 4 mps 741 mmHg 85%
    20:00 -1°C° 0 mm 4 mps 742 mmHg 86%
    21:00 -1°C° 0 mm 4 mps 742 mmHg 87%
    22:00 -2°C° 0 mm 4 mps 742 mmHg 88%
    23:00 -2°C° 0 mm 4 mps 742 mmHg 88%

    17 December, Sunday

    Time Temperature Precipitation Wind Pressure Humidity
    00:00 -2°C° 0 mm 4 mps 743 mmHg 88%
    01:00 -2°C° 0 mm 4 mps 743 mmHg 88%
    02:00 -2°C° 0 mm 4 mps 743 mmHg 87%
    03:00 -2°C° 0 mm 5 mps 743 mmHg 86%
    04:00 -2°C° 0 mm 5 mps 743 mmHg 86%
    05:00 -2°C° 0 mm 5 mps 744 mmHg 85%
    06:00 -2°C° 0 mm 5 mps 744 mmHg 83%
    07:00 -2°C° 0 mm 5 mps 744 mmHg 82%
    08:00 -1°C° 0 mm 5 mps 745 mmHg 81%
    09:00 -1°C° 0 mm 5 mps 745 mmHg 81%
    10:00 -1°C° 0 mm 5 mps 746 mmHg 80%
    11:00 -1°C° 0.1 mm 6 mps 746 mmHg 77%
    12:00 -1°C° 0.1 mm 6 mps 746 mmHg 74%
    13:00 -1°C° 0.1 mm 6 mps 746 mmHg 72%
    14:00 -1°C° 0 mm 5 mps 747 mmHg 74%
    15:00 -1°C° 0 mm 5 mps 748 mmHg 77%
    16:00 -2°C° 0 mm 4 mps 748 mmHg 79%
    17:00 -2°C° 0 mm 4 mps 749 mmHg 81%
    18:00 -2°C° 0 mm 4 mps 749 mmHg 83%
    19:00 -2°C° 0 mm 4 mps 750 mmHg 85%
    20:00 -2°C° 0 mm 4 mps 750 mmHg 86%
    21:00 -1°C° 0 mm 3 mps 751 mmHg 88%
    22:00 -1°C° 0 mm 3 mps 751 mmHg 89%
    23:00 -1°C° 0 mm 3 mps 752 mmHg 90%
    Show more